Time,TemperatureF,DewpointF,PressureIn,WindDirection,WindDirectionDegrees,WindSpeedMPH,WindSpeedGustMPH,Humidity,HourlyPrecipIn,Conditions,Clouds,dailyrainin,SoftwareType,DateUTC
2013-05-05 00:00:00,73.0,19.3,29.72,SW,225,3.0,8.0,13,0.00,,---,0.00,VWS V14.01,2013-05-05 07:00:00,
2013-05-05 00:01:00,73.2,19.5,29.72,SW,228,2.0,8.0,13,0.00,,---,0.00,VWS V14.01,2013-05-05 07:01:00,
2013-05-05 00:06:00,72.8,19.1,29.72,SW,232,2.0,5.0,13,0.00,,---,0.00,VWS V14.01,2013-05-05 07:06:00,
2013-05-05 00:12:00,72.8,19.1,29.73,WSW,239,5.0,9.0,13,0.00,,---,0.00,VWS V14.01,2013-05-05 07:12:00,
2013-05-05 00:17:00,73.0,21.0,29.72,SSW,210,3.0,10.0,14,0.00,,---,0.00,VWS V14.01,2013-05-05 07:17:00,
2013-05-05 00:22:00,73.1,22.7,29.72,South,187,5.0,13.0,15,0.00,,---,0.00,VWS V14.01,2013-05-05 07:22:00,
2013-05-05 00:27:00,73.6,26.1,29.72,SSE,148,12.0,14.0,17,0.00,,---,0.00,VWS V14.01,2013-05-05 07:27:00,
2013-05-05 00:30:00,73.7,27.6,29.72,SW,225,6.0,16.0,18,0.00,,---,0.00,VWS V14.01,2013-05-05 07:30:00,
2013-05-05 00:32:00,73.7,26.2,29.72,South,169,10.0,14.0,17,0.00,,---,0.00,VWS V14.01,2013-05-05 07:32:00,
2013-05-05 00:37:00,73.8,27.7,29.72,SSE,167,7.0,16.0,18,0.00,,---,0.00,VWS V14.01,2013-05-05 07:37:00,
2013-05-05 00:42:00,73.7,28.9,29.72,SSE,155,9.0,16.0,19,0.00,,---,0.00,VWS V14.01,2013-05-05 07:42:00,
2013-05-05 00:47:00,73.7,28.9,29.72,SSE,167,6.0,16.0,19,0.00,,---,0.00,VWS V14.01,2013-05-05 07:47:00,
2013-05-05 00:52:00,73.5,28.8,29.72,SSW,206,4.0,16.0,19,0.00,,---,0.00,VWS V14.01,2013-05-05 07:52:00,
2013-05-05 00:57:00,73.3,28.6,29.72,South,170,5.0,16.0,19,0.00,,---,0.00,VWS V14.01,2013-05-05 07:57:00,
2013-05-05 01:00:00,72.9,28.3,29.72,South,180,6.0,16.0,19,0.00,,---,0.00,VWS V14.01,2013-05-05 08:00:00,
2013-05-05 01:02:00,73.0,28.3,29.72,SSE,155,2.0,16.0,19,0.00,,---,0.00,VWS V14.01,2013-05-05 08:02:00,
2013-05-05 01:08:00,72.7,28.1,29.72,SSW,207,5.0,8.0,19,0.00,,---,0.00,VWS V14.01,2013-05-05 08:08:00,
2013-05-05 01:13:00,72.5,27.9,29.72,South,191,4.0,8.0,19,0.00,,---,0.00,VWS V14.01,2013-05-05 08:13:00,
2013-05-05 01:18:00,72.3,27.8,29.72,South,190,3.0,8.0,19,0.00,,---,0.00,VWS V14.01,2013-05-05 08:18:00,
2013-05-05 01:23:00,72.0,27.5,29.72,SE,145,2.0,8.0,19,0.00,,---,0.00,VWS V14.01,2013-05-05 08:23:00,
2013-05-05 01:28:00,71.8,26.0,29.72,SW,229,7.0,8.0,18,0.00,,---,0.00,VWS V14.01,2013-05-05 08:28:00,
2013-05-05 01:30:00,71.9,26.1,29.72,South,180,3.0,10.0,18,0.00,,---,0.00,VWS V14.01,2013-05-05 08:30:00,
2013-05-05 01:33:00,71.9,26.1,29.72,South,179,3.0,10.0,18,0.00,,---,0.00,VWS V14.01,2013-05-05 08:33:00,
2013-05-05 01:38:00,71.9,26.1,29.72,ESE,105,5.0,9.0,18,0.00,,---,0.00,VWS V14.01,2013-05-05 08:38:00,
2013-05-05 01:43:00,71.8,26.0,29.72,SSW,201,1.0,9.0,18,0.00,,---,0.00,VWS V14.01,2013-05-05 08:43:00,
2013-05-05 01:48:00,71.7,26.0,29.72,SW,218,4.0,9.0,18,0.00,,---,0.00,VWS V14.01,2013-05-05 08:48:00,
2013-05-05 01:53:00,71.8,26.0,29.72,SSW,197,3.0,10.0,18,0.00,,---,0.00,VWS V14.01,2013-05-05 08:53:00,
2013-05-05 01:59:00,71.9,26.1,29.72,SSW,194,2.0,14.0,18,0.00,,---,0.00,VWS V14.01,2013-05-05 08:59:00,
2013-05-05 02:00:00,72.0,24.8,29.72,South,180,4.0,14.0,17,0.00,,---,0.00,VWS V14.01,2013-05-05 09:00:00,
2013-05-05 02:04:00,72.0,24.8,29.72,SW,218,4.0,14.0,17,0.00,,---,0.00,VWS V14.01,2013-05-05 09:04:00,
2013-05-05 02:09:00,71.8,26.0,29.72,WSW,243,2.0,5.0,18,0.00,,---,0.00,VWS V14.01,2013-05-05 09:09:00,
2013-05-05 02:14:00,71.4,25.7,29.72,SSE,155,4.0,11.0,18,0.00,,---,0.00,VWS V14.01,2013-05-05 09:14:00,
2013-05-05 02:19:00,71.4,24.4,29.72,South,186,5.0,11.0,17,0.00,,---,0.00,VWS V14.01,2013-05-05 09:19:00,
2013-05-05 02:24:00,71.4,24.4,29.72,SSE,167,3.0,11.0,17,0.00,,---,0.00,VWS V14.01,2013-05-05 09:24:00,
2013-05-05 02:29:00,71.5,23.0,29.72,SE,133,4.0,12.0,16,0.00,,---,0.00,VWS V14.01,2013-05-05 09:29:00,
2013-05-05 02:30:00,71.4,24.4,29.72,South,180,4.0,12.0,17,0.00,,---,0.00,VWS V14.01,2013-05-05 09:30:00,
2013-05-05 02:34:00,71.4,24.4,29.72,SSE,167,7.0,9.0,17,0.00,,---,0.00,VWS V14.01,2013-05-05 09:34:00,
2013-05-05 02:39:00,71.4,22.9,29.72,SSE,160,4.0,14.0,16,0.00,,---,0.00,VWS V14.01,2013-05-05 09:39:00,
2013-05-05 02:44:00,71.3,21.3,29.72,South,176,6.0,14.0,15,0.00,,---,0.00,VWS V14.01,2013-05-05 09:44:00,
2013-05-05 02:50:00,71.3,22.8,29.72,SSE,166,5.0,14.0,16,0.00,,---,0.00,VWS V14.01,2013-05-05 09:50:00,
2013-05-05 02:55:00,71.2,21.2,29.72,SSW,198,2.0,14.0,15,0.00,,---,0.00,VWS V14.01,2013-05-05 09:55:00,
2013-05-05 03:00:00,71.0,21.1,29.71,South,181,4.0,14.0,15,0.00,,---,0.00,VWS V14.01,2013-05-05 10:00:00,
2013-05-05 03:05:00,71.0,21.1,29.72,SW,229,4.0,7.0,15,0.00,,---,0.00,VWS V14.01,2013-05-05 10:05:00,
2013-05-05 03:10:00,70.9,19.4,29.71,SW,226,3.0,7.0,14,0.00,,---,0.00,VWS V14.01,2013-05-05 10:10:00,
2013-05-05 03:15:00,70.7,19.2,29.72,West,265,3.0,9.0,14,0.00,,---,0.00,VWS V14.01,2013-05-05 10:15:00,
2013-05-05 03:20:00,70.5,19.0,29.72,SE,136,4.0,10.0,14,0.00,,---,0.00,VWS V14.01,2013-05-05 10:20:00,
2013-05-05 03:25:00,70.3,18.9,29.72,WSW,243,4.0,10.0,14,0.00,,---,0.00,VWS V14.01,2013-05-05 10:25:00,
2013-05-05 03:30:00,70.2,18.8,29.72,SSW,197,5.0,12.0,14,0.00,,---,0.00,VWS V14.01,2013-05-05 10:30:00,
2013-05-05 03:35:00,70.0,20.3,29.72,SSW,198,7.0,8.0,15,0.00,,---,0.00,VWS V14.01,2013-05-05 10:35:00,
2013-05-05 03:41:00,69.8,20.1,29.72,South,188,4.0,9.0,15,0.00,,---,0.00,VWS V14.01,2013-05-05 10:41:00,
2013-05-05 03:46:00,69.7,20.0,29.72,SSW,195,3.0,9.0,15,0.00,,---,0.00,VWS V14.01,2013-05-05 10:46:00,
2013-05-05 03:51:00,69.7,20.0,29.72,SE,146,3.0,9.0,15,0.00,,---,0.00,VWS V14.01,2013-05-05 10:51:00,
2013-05-05 03:56:00,69.5,19.9,29.72,SW,221,4.0,9.0,15,0.00,,---,0.00,VWS V14.01,2013-05-05 10:56:00,
2013-05-05 04:00:00,69.3,19.7,29.72,SSW,202,3.0,9.0,15,0.00,,---,0.00,VWS V14.01,2013-05-05 11:00:00,
2013-05-05 04:01:00,69.3,19.7,29.72,WSW,250,3.0,9.0,15,0.00,,---,0.00,VWS V14.01,2013-05-05 11:01:00,
2013-05-05 04:06:00,69.2,19.6,29.72,SE,143,4.0,5.0,15,0.00,,---,0.00,VWS V14.01,2013-05-05 11:06:00,
2013-05-05 04:11:00,69.1,21.1,29.71,SSW,209,9.0,11.0,16,0.00,,---,0.00,VWS V14.01,2013-05-05 11:11:00,
2013-05-05 04:16:00,69.1,21.1,29.71,South,174,2.0,11.0,16,0.00,,---,0.00,VWS V14.01,2013-05-05 11:16:00,
2013-05-05 04:21:00,69.2,21.1,29.72,SW,231,6.0,11.0,16,0.00,,---,0.00,VWS V14.01,2013-05-05 11:21:00,
2013-05-05 04:26:00,69.0,21.0,29.72,SSW,193,4.0,11.0,16,0.00,,---,0.00,VWS V14.01,2013-05-05 11:26:00,
2013-05-05 04:30:00,68.7,20.7,29.72,South,180,4.0,11.0,16,0.00,,---,0.00,VWS V14.01,2013-05-05 11:30:00,
2013-05-05 04:32:00,68.8,20.8,29.72,SW,219,4.0,11.0,16,0.00,,---,0.00,VWS V14.01,2013-05-05 11:32:00,
2013-05-05 04:37:00,68.6,20.6,29.72,SSW,193,4.0,6.0,16,0.00,,---,0.00,VWS V14.01,2013-05-05 11:37:00,
2013-05-05 04:42:00,68.6,20.6,29.72,SSW,197,3.0,10.0,16,0.00,,---,0.00,VWS V14.01,2013-05-05 11:42:00,
2013-05-05 04:47:00,68.5,20.6,29.72,South,177,1.0,10.0,16,0.00,,---,0.00,VWS V14.01,2013-05-05 11:47:00,
2013-05-05 04:52:00,68.5,20.6,29.72,South,173,1.0,10.0,16,0.00,,---,0.00,VWS V14.01,2013-05-05 11:52:00,
2013-05-05 04:57:00,68.4,20.5,29.72,SSW,197,3.0,10.0,16,0.00,,---,0.00,VWS V14.01,2013-05-05 11:57:00,
2013-05-05 05:00:00,68.9,19.4,29.73,South,180,4.0,12.0,15,0.00,,---,0.00,VWS V14.01,2013-05-05 12:00:00,
2013-05-05 05:02:00,68.7,19.2,29.72,SSW,208,6.0,11.0,15,0.00,,---,0.00,VWS V14.01,2013-05-05 12:02:00,
2013-05-05 05:07:00,68.9,20.9,29.73,SSE,166,12.0,12.0,16,0.00,,---,0.00,VWS V14.01,2013-05-05 12:07:00,
2013-05-05 05:12:00,68.9,20.9,29.73,South,190,1.0,12.0,16,0.00,,---,0.00,VWS V14.01,2013-05-05 12:12:00,
2013-05-05 05:17:00,68.8,20.8,29.73,WSW,253,1.0,12.0,16,0.00,,---,0.00,VWS V14.01,2013-05-05 12:17:00,
2013-05-05 05:22:00,68.7,20.7,29.73,SSW,211,3.0,12.0,16,0.00,,---,0.00,VWS V14.01,2013-05-05 12:22:00,
2013-05-05 05:28:00,68.5,20.6,29.73,South,188,0.0,12.0,16,0.00,,---,0.00,VWS V14.01,2013-05-05 12:28:00,
2013-05-05 05:30:00,68.3,21.8,29.74,SW,225,4.0,13.0,17,0.00,,---,0.00,VWS V14.01,2013-05-05 12:30:00,
2013-05-05 05:33:00,68.3,21.8,29.74,SW,232,5.0,12.0,17,0.00,,---,0.00,VWS V14.01,2013-05-05 12:33:00,
2013-05-05 05:38:00,68.1,21.7,29.74,SE,125,2.0,9.0,17,0.00,,---,0.00,VWS V14.01,2013-05-05 12:38:00,
2013-05-05 05:43:00,68.1,21.7,29.74,SW,224,3.0,9.0,17,0.00,,---,0.00,VWS V14.01,2013-05-05 12:43:00,
2013-05-05 05:48:00,68.1,23.0,29.74,South,191,2.0,9.0,18,0.00,,---,0.00,VWS V14.01,2013-05-05 12:48:00,
2013-05-05 05:53:00,68.1,23.0,29.75,WSW,250,4.0,9.0,18,0.00,,---,0.00,VWS V14.01,2013-05-05 12:53:00,
2013-05-05 05:58:00,68.2,23.1,29.75,SW,226,1.0,12.0,18,0.00,,---,0.00,VWS V14.01,2013-05-05 12:58:00,
2013-05-05 06:00:00,68.3,24.5,29.75,SSW,202,4.0,12.0,19,0.00,,---,0.00,VWS V14.01,2013-05-05 13:00:00,
2013-05-05 06:03:00,68.2,24.4,29.75,SSW,205,8.0,12.0,19,0.00,,---,0.00,VWS V14.01,2013-05-05 13:03:00,
2013-05-05 06:08:00,68.5,24.6,29.75,SW,217,4.0,11.0,19,0.00,,---,0.00,VWS V14.01,2013-05-05 13:08:00,
2013-05-05 06:13:00,68.7,24.8,29.75,SSW,205,0.0,11.0,19,0.00,,---,0.00,VWS V14.01,2013-05-05 13:13:00,
2013-05-05 06:18:00,68.6,26.0,29.76,SE,136,3.0,11.0,20,0.00,,---,0.00,VWS V14.01,2013-05-05 13:18:00,
2013-05-05 06:24:00,68.6,26.0,29.76,SSW,201,7.0,12.0,20,0.00,,---,0.00,VWS V14.01,2013-05-05 13:24:00,
2013-05-05 06:29:00,69.4,26.6,29.76,SSE,157,6.0,12.0,20,0.00,,---,0.00,VWS V14.01,2013-05-05 13:29:00,
2013-05-05 06:30:00,69.9,25.8,29.76,South,180,5.0,13.0,19,0.00,,---,0.00,VWS V14.01,2013-05-05 13:30:00,
2013-05-05 06:34:00,69.9,25.8,29.76,SE,139,6.0,13.0,19,0.00,,---,0.00,VWS V14.01,2013-05-05 13:34:00,
2013-05-05 06:39:00,70.1,27.2,29.76,South,176,8.0,11.0,20,0.00,,---,0.00,VWS V14.01,2013-05-05 13:39:00,
2013-05-05 06:44:00,70.3,27.4,29.77,South,169,2.0,11.0,20,0.00,,---,0.00,VWS V14.01,2013-05-05 13:44:00,
2013-05-05 06:49:00,70.8,26.5,29.77,SSW,208,5.0,11.0,19,0.00,,---,0.00,VWS V14.01,2013-05-05 13:49:00,
2013-05-05 06:54:00,71.5,28.4,29.77,South,173,4.0,11.0,20,0.00,,---,0.00,VWS V14.01,2013-05-05 13:54:00,
2013-05-05 06:59:00,72.3,27.8,29.77,WSW,252,2.0,11.0,19,0.00,,---,0.00,VWS V14.01,2013-05-05 13:59:00,
2013-05-05 07:00:00,72.6,28.0,29.77,South,180,5.0,12.0,19,0.00,,---,0.00,VWS V14.01,2013-05-05 14:00:00,
2013-05-05 07:04:00,72.7,28.1,29.77,SE,142,6.0,6.0,19,0.00,,---,0.00,VWS V14.01,2013-05-05 14:04:00,
2013-05-05 07:09:00,73.0,28.3,29.77,South,179,6.0,8.0,19,0.00,,---,0.00,VWS V14.01,2013-05-05 14:09:00,
2013-05-05 07:15:00,73.0,29.6,29.77,SE,139,8.0,13.0,20,0.00,,---,0.00,VWS V14.01,2013-05-05 14:15:00,
2013-05-05 07:20:00,72.9,28.3,29.77,SE,139,8.0,15.0,19,0.00,,---,0.00,VWS V14.01,2013-05-05 14:20:00,
2013-05-05 07:25:00,73.1,28.4,29.77,SE,138,6.0,15.0,19,0.00,,---,0.00,VWS V14.01,2013-05-05 14:25:00,
2013-05-05 07:30:00,73.2,29.8,29.77,South,180,2.0,15.0,20,0.00,,---,0.00,VWS V14.01,2013-05-05 14:30:00,
2013-05-05 07:35:00,73.2,28.5,29.77,SSW,212,11.0,11.0,19,0.00,,---,0.00,VWS V14.01,2013-05-05 14:35:00,
2013-05-05 07:40:00,73.3,28.6,29.77,SSE,162,8.0,13.0,19,0.00,,---,0.00,VWS V14.01,2013-05-05 14:40:00,
2013-05-05 07:45:00,73.9,29.1,29.77,SSW,210,3.0,13.0,19,0.00,,---,0.00,VWS V14.01,2013-05-05 14:45:00,
2013-05-05 07:50:00,74.1,29.2,29.78,SW,228,7.0,13.0,19,0.00,,---,0.00,VWS V14.01,2013-05-05 14:50:00,
2013-05-05 07:55:00,74.2,28.0,29.78,South,170,15.0,15.0,18,0.00,,---,0.00,VWS V14.01,2013-05-05 14:55:00,
2013-05-05 08:00:00,74.7,28.4,29.77,South,180,6.0,15.0,18,0.00,,---,0.00,VWS V14.01,2013-05-05 15:00:00,
2013-05-05 08:01:00,74.7,28.4,29.78,SW,214,6.0,15.0,18,0.00,,---,0.00,VWS V14.01,2013-05-05 15:01:00,
2013-05-05 08:06:00,74.8,28.5,29.77,South,183,4.0,8.0,18,0.00,,---,0.00,VWS V14.01,2013-05-05 15:06:00,
2013-05-05 08:11:00,74.7,28.4,29.78,SSE,165,1.0,8.0,18,0.00,,---,0.00,VWS V14.01,2013-05-05 15:11:00,
2013-05-05 08:16:00,74.1,26.5,29.78,SSW,201,6.0,9.0,17,0.00,,---,0.00,VWS V14.01,2013-05-05 15:16:00,
2013-05-05 08:21:00,73.2,27.2,29.78,ESE,114,2.0,11.0,18,0.00,,---,0.00,VWS V14.01,2013-05-05 15:21:00,
2013-05-05 08:26:00,73.5,27.4,29.78,SSW,208,2.0,11.0,18,0.00,,---,0.00,VWS V14.01,2013-05-05 15:26:00,
2013-05-05 08:30:00,74.8,27.1,29.78,South,180,4.0,12.0,17,0.00,,---,0.00,VWS V14.01,2013-05-05 15:30:00,
2013-05-05 08:31:00,74.6,25.5,29.78,SE,135,7.0,12.0,16,0.00,,---,0.00,VWS V14.01,2013-05-05 15:31:00,
2013-05-05 08:36:00,74.9,25.7,29.78,SSW,202,5.0,14.0,16,0.00,,---,0.00,VWS V14.01,2013-05-05 15:36:00,
2013-05-05 08:41:00,74.5,25.4,29.78,WSW,241,7.0,15.0,16,0.00,,---,0.00,VWS V14.01,2013-05-05 15:41:00,
2013-05-05 08:47:00,74.3,26.7,29.77,ENE,73,4.0,15.0,17,0.00,,---,0.00,VWS V14.01,2013-05-05 15:47:00,
2013-05-05 08:52:00,74.5,26.9,29.78,South,190,11.0,15.0,17,0.00,,---,0.00,VWS V14.01,2013-05-05 15:52:00,
2013-05-05 08:57:00,75.3,27.5,29.78,SSE,152,10.0,15.0,17,0.00,,---,0.00,VWS V14.01,2013-05-05 15:57:00,
2013-05-05 09:00:00,76.4,26.9,29.78,South,180,6.0,15.0,16,0.00,,---,0.00,VWS V14.01,2013-05-05 16:00:00,
2013-05-05 09:02:00,76.2,28.2,29.78,SW,223,2.0,15.0,17,0.00,,---,0.00,VWS V14.01,2013-05-05 16:02:00,
2013-05-05 09:07:00,76.4,28.4,29.77,South,177,6.0,12.0,17,0.00,,---,0.00,VWS V14.01,2013-05-05 16:07:00,
2013-05-05 09:12:00,76.7,27.2,29.78,SSW,211,11.0,16.0,16,0.00,,---,0.00,VWS V14.01,2013-05-05 16:12:00,
2013-05-05 09:17:00,75.9,28.0,29.78,East,90,8.0,16.0,17,0.00,,---,0.00,VWS V14.01,2013-05-05 16:17:00,
2013-05-05 09:22:00,75.3,27.5,29.78,SW,229,7.0,16.0,17,0.00,,---,0.00,VWS V14.01,2013-05-05 16:22:00,
2013-05-05 09:27:00,75.2,27.4,29.77,South,176,5.0,16.0,17,0.00,,---,0.00,VWS V14.01,2013-05-05 16:27:00,
2013-05-05 09:30:00,75.1,27.4,29.78,SSE,158,6.0,16.0,17,0.00,,---,0.00,VWS V14.01,2013-05-05 16:30:00,
2013-05-05 09:32:00,75.2,27.4,29.78,SSW,195,11.0,16.0,17,0.00,,---,0.00,VWS V14.01,2013-05-05 16:32:00,
2013-05-05 09:37:00,75.1,27.4,29.77,SSW,207,6.0,10.0,17,0.00,,---,0.00,VWS V14.01,2013-05-05 16:37:00,
2013-05-05 09:42:00,76.1,28.2,29.78,SSW,198,4.0,17.0,17,0.00,,---,0.00,VWS V14.01,2013-05-05 16:42:00,
2013-05-05 09:48:00,77.7,28.0,29.78,SSW,197,4.0,17.0,16,0.00,,---,0.00,VWS V14.01,2013-05-05 16:48:00,
2013-05-05 09:53:00,78.2,28.4,29.78,SSE,149,5.0,17.0,16,0.00,,---,0.00,VWS V14.01,2013-05-05 16:53:00,
2013-05-05 09:58:00,79.2,29.2,29.78,SSE,162,5.0,17.0,16,0.00,,---,0.00,VWS V14.01,2013-05-05 16:58:00,
2013-05-05 10:00:00,80.4,28.6,29.78,South,180,5.0,17.0,15,0.00,,---,0.00,VWS V14.01,2013-05-05 17:00:00,
2013-05-05 10:03:00,80.1,29.9,29.77,SSE,165,3.0,17.0,16,0.00,,---,0.00,VWS V14.01,2013-05-05 17:03:00,
2013-05-05 10:08:00,80.7,28.8,29.77,SE,138,10.0,14.0,15,0.00,,---,0.00,VWS V14.01,2013-05-05 17:08:00,
2013-05-05 10:13:00,80.4,26.9,29.78,SSE,166,4.0,18.0,14,0.00,,---,0.00,VWS V14.01,2013-05-05 17:13:00,
2013-05-05 10:18:00,80.7,27.1,29.78,SW,215,5.0,18.0,14,0.00,,---,0.00,VWS V14.01,2013-05-05 17:18:00,
2013-05-05 10:23:00,80.4,26.9,29.78,South,169,11.0,18.0,14,0.00,,---,0.00,VWS V14.01,2013-05-05 17:23:00,
2013-05-05 10:28:00,80.3,26.8,29.77,SW,225,13.0,19.0,14,0.00,,---,0.00,VWS V14.01,2013-05-05 17:28:00,
2013-05-05 10:30:00,80.8,25.4,29.77,SSW,202,8.0,19.0,13,0.00,,---,0.00,VWS V14.01,2013-05-05 17:30:00,
2013-05-05 10:33:00,80.8,27.2,29.77,SSE,162,13.0,19.0,14,0.00,,---,0.00,VWS V14.01,2013-05-05 17:33:00,
2013-05-05 10:38:00,80.4,26.9,29.77,SW,220,7.0,16.0,14,0.00,,---,0.00,VWS V14.01,2013-05-05 17:38:00,
2013-05-05 10:43:00,80.4,25.1,29.77,WSW,238,13.0,18.0,13,0.00,,---,0.00,VWS V14.01,2013-05-05 17:43:00,
2013-05-05 10:48:00,80.3,26.8,29.77,SW,229,11.0,18.0,14,0.00,,---,0.00,VWS V14.01,2013-05-05 17:48:00,
2013-05-05 10:54:00,80.1,26.6,29.77,SSE,150,4.0,18.0,14,0.00,,---,0.00,VWS V14.01,2013-05-05 17:54:00,
2013-05-05 10:59:00,80.6,27.0,29.77,SE,132,8.0,18.0,14,0.00,,---,0.00,VWS V14.01,2013-05-05 17:59:00,
2013-05-05 11:00:00,80.8,25.4,29.77,SW,225,9.0,21.0,13,0.00,,---,0.00,VWS V14.01,2013-05-05 18:00:00,
2013-05-05 11:04:00,80.8,25.4,29.77,West,262,10.0,19.0,13,0.00,,---,0.00,VWS V14.01,2013-05-05 18:04:00,
2013-05-05 11:09:00,81.2,25.7,29.77,SW,226,11.0,17.0,13,0.00,,---,0.00,VWS V14.01,2013-05-05 18:09:00,
2013-05-05 11:14:00,81.3,25.8,29.77,SSE,154,4.0,17.0,13,0.00,,---,0.00,VWS V14.01,2013-05-05 18:14:00,
2013-05-05 11:19:00,81.5,27.8,29.77,South,179,7.0,17.0,14,0.00,,---,0.00,VWS V14.01,2013-05-05 18:19:00,
2013-05-05 11:24:00,81.7,26.1,29.77,SW,215,2.0,17.0,13,0.00,,---,0.00,VWS V14.01,2013-05-05 18:24:00,
2013-05-05 11:29:00,82.3,26.6,29.76,SSW,204,4.0,17.0,13,0.00,,---,0.00,VWS V14.01,2013-05-05 18:29:00,
2013-05-05 11:30:00,82.4,24.7,29.77,SW,225,8.0,17.0,12,0.00,,---,0.00,VWS V14.01,2013-05-05 18:30:00,
2013-05-05 11:34:00,82.4,26.7,29.76,SSE,153,6.0,10.0,13,0.00,,---,0.00,VWS V14.01,2013-05-05 18:34:00,
2013-05-05 11:39:00,82.4,26.7,29.76,South,187,9.0,14.0,13,0.00,,---,0.00,VWS V14.01,2013-05-05 18:39:00,
2013-05-05 11:44:00,82.3,26.6,29.76,South,186,4.0,14.0,13,0.00,,---,0.00,VWS V14.01,2013-05-05 18:44:00,
2013-05-05 11:49:00,82.5,22.8,29.76,SSW,196,3.0,14.0,11,0.00,,---,0.00,VWS V14.01,2013-05-05 18:49:00,
2013-05-05 11:55:00,82.6,24.9,29.75,WSW,252,3.0,14.0,12,0.00,,---,0.00,VWS V14.01,2013-05-05 18:55:00,
2013-05-05 12:00:00,83.4,21.2,29.75,SSW,198,11.0,17.0,10,0.00,,---,0.00,VWS V14.01,2013-05-05 19:00:00,
2013-05-05 12:05:00,83.2,21.0,29.75,West,274,7.0,17.0,10,0.00,,---,0.00,VWS V14.01,2013-05-05 19:05:00,
2013-05-05 12:10:00,83.0,20.9,29.75,West,270,9.0,17.0,10,0.00,,---,0.00,VWS V14.01,2013-05-05 19:10:00,
2013-05-05 12:15:00,83.1,23.2,29.75,SSW,208,11.0,17.0,11,0.00,,---,0.00,VWS V14.01,2013-05-05 19:15:00,
2013-05-05 12:20:00,83.5,23.5,29.74,WSW,238,8.0,17.0,11,0.00,,---,0.00,VWS V14.01,2013-05-05 19:20:00,
2013-05-05 12:25:00,83.7,23.7,29.74,South,175,7.0,17.0,11,0.00,,---,0.00,VWS V14.01,2013-05-05 19:25:00,
2013-05-05 12:30:00,83.9,21.6,29.74,SSE,154,4.0,17.0,10,0.00,,---,0.00,VWS V14.01,2013-05-05 19:30:00,
2013-05-05 12:35:00,83.9,21.6,29.74,ESE,111,8.0,14.0,10,0.00,,---,0.00,VWS V14.01,2013-05-05 19:35:00,
2013-05-05 12:40:00,84.4,21.9,29.74,SE,127,3.0,14.0,10,0.00,,---,0.00,VWS V14.01,2013-05-05 19:40:00,
2013-05-05 12:46:00,84.4,21.9,29.73,South,186,11.0,14.0,10,0.00,,---,0.00,VWS V14.01,2013-05-05 19:46:00,
2013-05-05 12:51:00,84.7,22.2,29.73,South,172,2.0,14.0,10,0.00,,---,0.00,VWS V14.01,2013-05-05 19:51:00,
2013-05-05 12:56:00,85.1,22.5,29.73,South,183,9.0,18.0,10,0.00,,---,0.00,VWS V14.01,2013-05-05 19:56:00,
2013-05-05 13:00:00,86.5,21.0,29.73,South,180,6.0,18.0,9,0.00,,---,0.00,VWS V14.01,2013-05-05 20:00:00,
2013-05-05 13:01:00,85.7,22.9,29.73,SE,135,1.0,18.0,10,0.00,,---,0.00,VWS V14.01,2013-05-05 20:01:00,
2013-05-05 13:06:00,86.7,21.2,29.73,SW,228,13.0,14.0,9,0.00,,---,0.00,VWS V14.01,2013-05-05 20:06:00,
2013-05-05 13:11:00,85.6,20.4,29.72,WSW,239,2.0,15.0,9,0.00,,---,0.00,VWS V14.01,2013-05-05 20:11:00,
2013-05-05 13:16:00,86.2,20.8,29.72,South,188,1.0,15.0,9,0.00,,---,0.00,VWS V14.01,2013-05-05 20:16:00,
2013-05-05 13:21:00,87.0,21.4,29.72,ESE,105,3.0,15.0,9,0.00,,---,0.00,VWS V14.01,2013-05-05 20:21:00,
2013-05-05 13:26:00,86.4,21.0,29.71,SSE,159,2.0,15.0,9,0.00,,---,0.00,VWS V14.01,2013-05-05 20:26:00,
2013-05-05 13:30:00,86.8,18.5,29.71,SW,225,5.0,15.0,8,0.00,,---,0.00,VWS V14.01,2013-05-05 20:30:00,
2013-05-05 13:31:00,86.5,15.2,29.71,SW,217,6.0,15.0,7,0.00,,---,0.00,VWS V14.01,2013-05-05 20:31:00,
2013-05-05 13:37:00,86.8,18.5,29.71,SW,235,11.0,14.0,8,0.00,,---,0.00,VWS V14.01,2013-05-05 20:37:00,
2013-05-05 13:42:00,87.1,21.5,29.70,SSW,204,6.0,15.0,9,0.00,,---,0.00,VWS V14.01,2013-05-05 20:42:00,
2013-05-05 13:47:00,85.3,20.1,29.70,WSW,248,13.0,19.0,9,0.00,,---,0.00,VWS V14.01,2013-05-05 20:47:00,
2013-05-05 13:52:00,84.9,19.8,29.71,WSW,240,9.0,19.0,9,0.00,,---,0.00,VWS V14.01,2013-05-05 20:52:00,
2013-05-05 13:57:00,84.8,22.2,29.70,WSW,241,8.0,19.0,10,0.00,,---,0.00,VWS V14.01,2013-05-05 20:57:00,
2013-05-05 14:00:00,85.8,20.5,29.70,WSW,248,9.0,19.0,9,0.00,,---,0.00,VWS V14.01,2013-05-05 21:00:00,
2013-05-05 14:02:00,85.5,22.8,29.70,South,180,5.0,19.0,10,0.00,,---,0.00,VWS V14.01,2013-05-05 21:02:00,
2013-05-05 14:07:00,85.8,20.5,29.69,South,184,14.0,14.0,9,0.00,,---,0.00,VWS V14.01,2013-05-05 21:07:00,
2013-05-05 14:12:00,85.9,23.1,29.69,SW,217,9.0,19.0,10,0.00,,---,0.00,VWS V14.01,2013-05-05 21:12:00,
2013-05-05 14:17:00,86.2,20.8,29.69,WSW,257,8.0,20.0,9,0.00,,---,0.00,VWS V14.01,2013-05-05 21:17:00,
2013-05-05 14:22:00,86.2,20.8,29.69,SW,222,7.0,20.0,9,0.00,,---,0.00,VWS V14.01,2013-05-05 21:22:00,
2013-05-05 14:28:00,85.8,20.5,29.69,ESE,118,3.0,20.0,9,0.00,,---,0.00,VWS V14.01,2013-05-05 21:28:00,
2013-05-05 14:30:00,85.5,20.3,29.69,SW,225,8.0,20.0,9,0.00,,---,0.00,VWS V14.01,2013-05-05 21:30:00,
2013-05-05 14:33:00,85.5,20.3,29.69,South,185,4.0,20.0,9,0.00,,---,0.00,VWS V14.01,2013-05-05 21:33:00,
2013-05-05 14:38:00,85.1,22.5,29.69,SW,217,9.0,14.0,10,0.00,,---,0.00,VWS V14.01,2013-05-05 21:38:00,
2013-05-05 14:43:00,84.5,22.0,29.69,SSW,202,12.0,16.0,10,0.00,,---,0.00,VWS V14.01,2013-05-05 21:43:00,
2013-05-05 14:48:00,84.2,21.8,29.68,South,169,3.0,16.0,10,0.00,,---,0.00,VWS V14.01,2013-05-05 21:48:00,
2013-05-05 14:53:00,84.5,22.0,29.68,WSW,258,10.0,16.0,10,0.00,,---,0.00,VWS V14.01,2013-05-05 21:53:00,
2013-05-05 14:58:00,84.3,24.1,29.68,SW,228,5.0,16.0,11,0.00,,---,0.00,VWS V14.01,2013-05-05 21:58:00,
2013-05-05 15:00:00,84.2,24.0,29.68,SW,225,7.0,19.0,11,0.00,,---,0.00,VWS V14.01,2013-05-05 22:00:00,
2013-05-05 15:03:00,84.3,24.1,29.68,WSW,253,16.0,18.0,11,0.00,,---,0.00,VWS V14.01,2013-05-05 22:03:00,
2013-05-05 15:08:00,84.2,24.0,29.68,WNW,290,10.0,17.0,11,0.00,,---,0.00,VWS V14.01,2013-05-05 22:08:00,
2013-05-05 15:13:00,84.3,24.1,29.67,WSW,256,11.0,17.0,11,0.00,,---,0.00,VWS V14.01,2013-05-05 22:13:00,
2013-05-05 15:19:00,84.9,26.7,29.67,SSE,162,3.0,17.0,12,0.00,,---,0.00,VWS V14.01,2013-05-05 22:19:00,
2013-05-05 15:24:00,85.8,27.4,29.67,SW,224,9.0,17.0,12,0.00,,---,0.00,VWS V14.01,2013-05-05 22:24:00,
2013-05-05 15:29:00,85.4,25.0,29.67,SW,221,13.0,17.0,11,0.00,,---,0.00,VWS V14.01,2013-05-05 22:29:00,
2013-05-05 15:30:00,86.2,27.7,29.66,SW,225,7.0,22.0,12,0.00,,---,0.00,VWS V14.01,2013-05-05 22:30:00,
2013-05-05 15:34:00,86.1,27.6,29.66,WSW,246,6.0,17.0,12,0.00,,---,0.00,VWS V14.01,2013-05-05 22:34:00,
2013-05-05 15:39:00,86.5,23.5,29.66,South,186,13.0,17.0,10,0.00,,---,0.00,VWS V14.01,2013-05-05 22:39:00,
2013-05-05 15:44:00,85.9,25.4,29.66,SSE,155,4.0,17.0,11,0.00,,---,0.00,VWS V14.01,2013-05-05 22:44:00,
2013-05-05 15:49:00,85.4,25.0,29.66,SSW,210,7.0,17.0,11,0.00,,---,0.00,VWS V14.01,2013-05-05 22:49:00,
2013-05-05 15:54:00,85.4,22.7,29.66,SSW,200,11.0,17.0,10,0.00,,---,0.00,VWS V14.01,2013-05-05 22:54:00,
2013-05-05 15:59:00,84.5,24.3,29.66,SSW,200,6.0,21.0,11,0.00,,---,0.00,VWS V14.01,2013-05-05 22:59:00,
2013-05-05 16:00:00,84.9,24.6,29.66,SW,225,8.0,21.0,11,0.00,,---,0.00,VWS V14.01,2013-05-05 23:00:00,
2013-05-05 16:05:00,85.0,24.7,29.66,WSW,238,8.0,12.0,11,0.00,,---,0.00,VWS V14.01,2013-05-05 23:05:00,
2013-05-05 16:10:00,85.7,27.3,29.66,SSE,158,10.0,19.0,12,0.00,,---,0.00,VWS V14.01,2013-05-05 23:10:00,
2013-05-05 16:15:00,84.9,26.7,29.66,SW,232,15.0,20.0,12,0.00,,---,0.00,VWS V14.01,2013-05-05 23:15:00,
2013-05-05 16:20:00,84.5,26.4,29.66,SSW,203,11.0,20.0,12,0.00,,---,0.00,VWS V14.01,2013-05-05 23:20:00,
2013-05-05 16:25:00,85.0,26.8,29.65,SW,233,6.0,20.0,12,0.00,,---,0.00,VWS V14.01,2013-05-05 23:25:00,
2013-05-05 16:30:00,84.6,26.5,29.65,South,181,8.0,20.0,12,0.00,,---,0.00,VWS V14.01,2013-05-05 23:30:00,
2013-05-05 16:35:00,85.0,26.8,29.65,SSW,208,4.0,12.0,12,0.00,,---,0.00,VWS V14.01,2013-05-05 23:35:00,
2013-05-05 16:40:00,85.9,27.5,29.65,SW,223,7.0,12.0,12,0.00,,---,0.00,VWS V14.01,2013-05-05 23:40:00,
2013-05-05 16:45:00,85.5,27.1,29.64,South,181,8.0,18.0,12,0.00,,---,0.00,VWS V14.01,2013-05-05 23:45:00,
2013-05-05 16:50:00,85.2,28.9,29.64,SW,221,9.0,20.0,13,0.00,,---,0.00,VWS V14.01,2013-05-05 23:50:00,
2013-05-05 16:55:00,85.5,29.1,29.64,SSW,204,8.0,20.0,13,0.00,,---,0.00,VWS V14.01,2013-05-05 23:55:00,
2013-05-05 17:00:00,85.0,24.7,29.64,SW,225,9.0,20.0,11,0.00,,---,0.00,VWS V14.01,2013-05-06 00:00:00,
2013-05-05 17:01:00,85.3,27.0,29.64,WSW,240,8.0,20.0,12,0.00,,---,0.00,VWS V14.01,2013-05-06 00:01:00,
2013-05-05 17:06:00,84.9,26.7,29.64,SSW,210,9.0,12.0,12,0.00,,---,0.00,VWS V14.01,2013-05-06 00:06:00,
2013-05-05 17:11:00,85.2,26.9,29.64,SSW,198,14.0,20.0,12,0.00,,---,0.00,VWS V14.01,2013-05-06 00:11:00,
2013-05-05 17:16:00,85.0,26.8,29.64,WSW,258,6.0,20.0,12,0.00,,---,0.00,VWS V14.01,2013-05-06 00:16:00,
2013-05-05 17:21:00,84.7,26.5,29.63,SW,218,10.0,20.0,12,0.00,,---,0.00,VWS V14.01,2013-05-06 00:21:00,
2013-05-05 17:26:00,84.8,28.5,29.63,SW,232,8.0,20.0,13,0.00,,---,0.00,VWS V14.01,2013-05-06 00:26:00,
2013-05-05 17:30:00,84.5,28.3,29.63,SW,225,9.0,20.0,13,0.00,,---,0.00,VWS V14.01,2013-05-06 00:30:00,
2013-05-05 17:31:00,84.8,28.5,29.63,SW,228,11.0,20.0,13,0.00,,---,0.00,VWS V14.01,2013-05-06 00:31:00,
2013-05-05 17:36:00,84.6,28.4,29.63,SW,232,10.0,12.0,13,0.00,,---,0.00,VWS V14.01,2013-05-06 00:36:00,
2013-05-05 17:41:00,84.2,28.1,29.63,SW,215,16.0,17.0,13,0.00,,---,0.00,VWS V14.01,2013-05-06 00:41:00,
2013-05-05 17:46:00,83.9,27.8,29.63,West,262,6.0,17.0,13,0.00,,---,0.00,VWS V14.01,2013-05-06 00:46:00,
2013-05-05 17:51:00,83.8,27.8,29.63,SSW,205,14.0,17.0,13,0.00,,---,0.00,VWS V14.01,2013-05-06 00:51:00,
2013-05-05 17:57:00,83.8,27.8,29.63,SSW,201,8.0,17.0,13,0.00,,---,0.00,VWS V14.01,2013-05-06 00:57:00,
2013-05-05 18:00:00,83.4,25.5,29.63,SW,225,9.0,17.0,12,0.00,,---,0.00,VWS V14.01,2013-05-06 01:00:00,
2013-05-05 18:02:00,83.5,25.6,29.63,SW,215,11.0,17.0,12,0.00,,---,0.00,VWS V14.01,2013-05-06 01:02:00,
2013-05-05 18:07:00,83.2,25.4,29.63,SW,214,14.0,18.0,12,0.00,,---,0.00,VWS V14.01,2013-05-06 01:07:00,
2013-05-05 18:12:00,83.0,25.2,29.63,WSW,257,11.0,18.0,12,0.00,,---,0.00,VWS V14.01,2013-05-06 01:12:00,
2013-05-05 18:17:00,82.7,22.9,29.63,SSW,200,11.0,20.0,11,0.00,,---,0.00,VWS V14.01,2013-05-06 01:17:00,
2013-05-05 18:22:00,82.5,24.8,29.63,SW,233,17.0,20.0,12,0.00,,---,0.00,VWS V14.01,2013-05-06 01:22:00,
2013-05-05 18:27:00,82.1,24.5,29.64,West,266,11.0,20.0,12,0.00,,---,0.00,VWS V14.01,2013-05-06 01:27:00,
2013-05-05 18:30:00,81.2,23.8,29.64,SW,225,9.0,21.0,12,0.00,,---,0.00,VWS V14.01,2013-05-06 01:30:00,
2013-05-05 18:32:00,81.3,23.9,29.64,SW,222,12.0,21.0,12,0.00,,---,0.00,VWS V14.01,2013-05-06 01:32:00,
2013-05-05 18:37:00,81.0,23.7,29.64,SW,229,6.0,16.0,12,0.00,,---,0.00,VWS V14.01,2013-05-06 01:37:00,
2013-05-05 18:42:00,80.7,23.4,29.64,SSW,208,9.0,16.0,12,0.00,,---,0.00,VWS V14.01,2013-05-06 01:42:00,
2013-05-05 18:47:00,80.7,23.4,29.64,SSW,206,6.0,16.0,12,0.00,,---,0.00,VWS V14.01,2013-05-06 01:47:00,
2013-05-05 18:53:00,80.2,21.0,29.65,WSW,242,7.0,16.0,11,0.00,,---,0.00,VWS V14.01,2013-05-06 01:53:00,
2013-05-05 18:58:00,79.7,22.6,29.65,SW,229,6.0,16.0,12,0.00,,---,0.00,VWS V14.01,2013-05-06 01:58:00,
2013-05-05 19:00:00,79.4,22.4,29.65,SW,225,8.0,16.0,12,0.00,,---,0.00,VWS V14.01,2013-05-06 02:00:00,
2013-05-05 19:03:00,79.4,22.4,29.65,WSW,248,9.0,16.0,12,0.00,,---,0.00,VWS V14.01,2013-05-06 02:03:00,
2013-05-05 19:08:00,79.2,22.3,29.66,SW,215,9.0,14.0,12,0.00,,---,0.00,VWS V14.01,2013-05-06 02:08:00,
2013-05-05 19:13:00,79.0,22.1,29.66,SW,232,7.0,14.0,12,0.00,,---,0.00,VWS V14.01,2013-05-06 02:13:00,
2013-05-05 19:18:00,78.8,22.0,29.67,SW,233,8.0,15.0,12,0.00,,---,0.00,VWS V14.01,2013-05-06 02:18:00,
2013-05-05 19:23:00,78.7,23.8,29.67,SSW,212,11.0,15.0,13,0.00,,---,0.00,VWS V14.01,2013-05-06 02:23:00,
2013-05-05 19:28:00,78.7,23.8,29.67,WSW,255,12.0,16.0,13,0.00,,---,0.00,VWS V14.01,2013-05-06 02:28:00,
2013-05-05 19:30:00,78.6,25.5,29.67,SW,225,9.0,16.0,14,0.00,,---,0.00,VWS V14.01,2013-05-06 02:30:00,
2013-05-05 19:33:00,78.7,25.5,29.67,SSW,204,6.0,16.0,14,0.00,,---,0.00,VWS V14.01,2013-05-06 02:33:00,
2013-05-05 19:38:00,78.5,25.4,29.67,SW,225,12.0,14.0,14,0.00,,---,0.00,VWS V14.01,2013-05-06 02:38:00,
2013-05-05 19:44:00,78.4,27.0,29.67,WSW,242,6.0,16.0,15,0.00,,---,0.00,VWS V14.01,2013-05-06 02:44:00,
2013-05-05 19:49:00,78.2,26.8,29.67,WSW,248,7.0,16.0,15,0.00,,---,0.00,VWS V14.01,2013-05-06 02:49:00,
2013-05-05 19:54:00,78.0,28.2,29.68,WSW,248,11.0,16.0,16,0.00,,---,0.00,VWS V14.01,2013-05-06 02:54:00,
2013-05-05 19:59:00,77.5,38.9,29.68,SW,227,8.0,17.0,25,0.00,,---,0.00,VWS V14.01,2013-05-06 02:59:00,
2013-05-05 20:00:00,75.9,38.6,29.69,WSW,248,8.0,18.0,26,0.00,,---,0.00,VWS V14.01,2013-05-06 03:00:00,
2013-05-05 20:04:00,75.9,38.6,29.69,WSW,238,9.0,18.0,26,0.00,,---,0.00,VWS V14.01,2013-05-06 03:04:00,
2013-05-05 20:09:00,74.9,37.7,29.69,WSW,245,7.0,18.0,26,0.00,,---,0.00,VWS V14.01,2013-05-06 03:09:00,
2013-05-05 20:14:00,74.3,37.2,29.70,West,259,8.0,18.0,26,0.00,,---,0.00,VWS V14.01,2013-05-06 03:14:00,
2013-05-05 20:19:00,73.9,35.9,29.70,WSW,240,14.0,18.0,25,0.00,,---,0.00,VWS V14.01,2013-05-06 03:19:00,
2013-05-05 20:24:00,73.5,35.6,29.71,West,263,5.0,18.0,25,0.00,,---,0.00,VWS V14.01,2013-05-06 03:24:00,
2013-05-05 20:29:00,73.2,34.3,29.71,SW,232,5.0,18.0,24,0.00,,---,0.00,VWS V14.01,2013-05-06 03:29:00,
2013-05-05 20:30:00,73.0,33.0,29.72,WSW,248,9.0,19.0,23,0.00,,---,0.00,VWS V14.01,2013-05-06 03:30:00,
2013-05-05 20:35:00,72.9,33.0,29.72,West,259,13.0,14.0,23,0.00,,---,0.00,VWS V14.01,2013-05-06 03:35:00,
2013-05-05 20:40:00,72.7,31.7,29.72,West,277,6.0,18.0,22,0.00,,---,0.00,VWS V14.01,2013-05-06 03:40:00,
2013-05-05 20:45:00,72.5,30.4,29.72,West,281,7.0,18.0,21,0.00,,---,0.00,VWS V14.01,2013-05-06 03:45:00,
2013-05-05 20:50:00,72.3,29.0,29.73,WSW,245,4.0,18.0,20,0.00,,---,0.00,VWS V14.01,2013-05-06 03:50:00,
2013-05-05 20:55:00,72.2,28.9,29.74,WNW,286,3.0,18.0,20,0.00,,---,0.00,VWS V14.01,2013-05-06 03:55:00,
2013-05-05 21:00:00,72.0,27.5,29.74,SW,232,4.0,18.0,19,0.00,,---,0.00,VWS V14.01,2013-05-06 04:00:00,
2013-05-05 21:01:00,72.0,27.5,29.74,WSW,252,3.0,18.0,19,0.00,,---,0.00,VWS V14.01,2013-05-06 04:01:00,
2013-05-05 21:02:00,72.0,27.5,29.74,West,266,0.0,18.0,19,0.00,,---,0.00,VWS V14.01,2013-05-06 04:02:00,
2013-05-05 21:07:00,71.8,27.4,29.75,SW,226,4.0,7.0,19,0.00,,---,0.00,VWS V14.01,2013-05-06 04:07:00,
2013-05-05 21:12:00,71.7,26.0,29.75,WSW,249,3.0,8.0,18,0.00,,---,0.00,VWS V14.01,2013-05-06 04:12:00,
2013-05-05 21:17:00,71.6,25.9,29.76,WSW,240,5.0,10.0,18,0.00,,---,0.00,VWS V14.01,2013-05-06 04:17:00,
2013-05-05 21:22:00,71.4,27.0,29.76,South,186,11.0,13.0,19,0.00,,---,0.00,VWS V14.01,2013-05-06 04:22:00,
2013-05-05 21:27:00,71.1,26.8,29.77,SW,222,10.0,14.0,19,0.00,,---,0.00,VWS V14.01,2013-05-06 04:27:00,
2013-05-05 21:30:00,70.8,26.5,29.77,WSW,248,5.0,15.0,19,0.00,,---,0.00,VWS V14.01,2013-05-06 04:30:00,
2013-05-05 21:32:00,70.9,26.6,29.77,WSW,250,4.0,15.0,19,0.00,,---,0.00,VWS V14.01,2013-05-06 04:32:00,
2013-05-05 21:37:00,70.7,26.5,29.77,WSW,240,8.0,12.0,19,0.00,,---,0.00,VWS V14.01,2013-05-06 04:37:00,
2013-05-05 21:42:00,70.5,26.3,29.77,SW,219,4.0,13.0,19,0.00,,---,0.00,VWS V14.01,2013-05-06 04:42:00,
2013-05-05 21:47:00,70.3,26.1,29.77,SW,233,8.0,13.0,19,0.00,,---,0.00,VWS V14.01,2013-05-06 04:47:00,
2013-05-05 21:53:00,70.2,26.0,29.77,West,265,5.0,13.0,19,0.00,,---,0.00,VWS V14.01,2013-05-06 04:53:00,
2013-05-05 21:58:00,70.1,26.0,29.77,WSW,242,8.0,13.0,19,0.00,,---,0.00,VWS V14.01,2013-05-06 04:58:00,
2013-05-05 22:00:00,70.0,25.9,29.77,WSW,248,6.0,14.0,19,0.00,,---,0.00,VWS V14.01,2013-05-06 05:00:00,
2013-05-05 22:03:00,70.1,26.0,29.77,WSW,255,2.0,13.0,19,0.00,,---,0.00,VWS V14.01,2013-05-06 05:03:00,
2013-05-05 22:08:00,69.9,25.8,29.77,WSW,246,7.0,10.0,19,0.00,,---,0.00,VWS V14.01,2013-05-06 05:08:00,
2013-05-05 22:13:00,69.9,25.8,29.77,WSW,252,4.0,10.0,19,0.00,,---,0.00,VWS V14.01,2013-05-06 05:13:00,
2013-05-05 22:18:00,69.8,25.7,29.77,WSW,253,3.0,10.0,19,0.00,,---,0.00,VWS V14.01,2013-05-06 05:18:00,
2013-05-05 22:23:00,69.8,25.7,29.78,SW,220,3.0,10.0,19,0.00,,---,0.00,VWS V14.01,2013-05-06 05:23:00,
2013-05-05 22:28:00,69.7,26.9,29.77,WSW,257,2.0,10.0,20,0.00,,---,0.00,VWS V14.01,2013-05-06 05:28:00,
2013-05-05 22:30:00,70.1,32.7,29.78,WSW,248,5.0,13.0,25,0.00,,---,0.00,VWS V14.01,2013-05-06 05:30:00,
2013-05-05 22:33:00,70.0,32.6,29.78,SSW,211,10.0,13.0,25,0.00,,---,0.00,VWS V14.01,2013-05-06 05:33:00,
2013-05-05 22:38:00,70.2,33.7,29.78,SW,215,11.0,14.0,26,0.00,,---,0.00,VWS V14.01,2013-05-06 05:38:00,
2013-05-05 22:43:00,70.1,34.6,29.79,SW,224,7.0,14.0,27,0.00,,---,0.00,VWS V14.01,2013-05-06 05:43:00,
2013-05-05 22:49:00,69.5,37.6,29.78,SSW,210,2.0,14.0,31,0.00,,---,0.00,VWS V14.01,2013-05-06 05:49:00,
2013-05-05 22:54:00,69.2,38.1,29.78,SW,214,10.0,14.0,32,0.00,,---,0.00,VWS V14.01,2013-05-06 05:54:00,
2013-05-05 22:59:00,69.1,37.2,29.78,South,181,7.0,19.0,31,0.00,,---,0.00,VWS V14.01,2013-05-06 05:59:00,
2013-05-05 23:00:00,69.1,37.2,29.78,SW,225,7.0,19.0,31,0.00,,---,0.00,VWS V14.01,2013-05-06 06:00:00,
2013-05-05 23:04:00,69.2,37.3,29.78,SSE,148,6.0,19.0,31,0.00,,---,0.00,VWS V14.01,2013-05-06 06:04:00,
2013-05-05 23:09:00,69.2,36.5,29.79,SSW,211,3.0,13.0,30,0.00,,---,0.00,VWS V14.01,2013-05-06 06:09:00,
2013-05-05 23:14:00,69.1,35.5,29.79,SSW,201,5.0,13.0,29,0.00,,---,0.00,VWS V14.01,2013-05-06 06:14:00,
2013-05-05 23:19:00,69.0,35.5,29.79,SSW,207,4.0,13.0,29,0.00,,---,0.00,VWS V14.01,2013-05-06 06:19:00,
2013-05-05 23:24:00,68.8,35.3,29.79,WSW,249,4.0,13.0,29,0.00,,---,0.00,VWS V14.01,2013-05-06 06:24:00,
2013-05-05 23:29:00,68.7,34.3,29.79,SW,221,3.0,13.0,28,0.00,,---,0.00,VWS V14.01,2013-05-06 06:29:00,
2013-05-05 23:30:00,68.6,32.4,29.80,SW,225,5.0,13.0,26,0.00,,---,0.00,VWS V14.01,2013-05-06 06:30:00,
2013-05-05 23:34:00,68.5,31.3,29.80,West,262,8.0,12.0,25,0.00,,---,0.00,VWS V14.01,2013-05-06 06:34:00,
2013-05-05 23:39:00,68.4,30.2,29.80,WSW,252,7.0,14.0,24,0.00,,---,0.00,VWS V14.01,2013-05-06 06:39:00,
2013-05-05 23:44:00,68.2,31.1,29.80,WSW,252,5.0,14.0,25,0.00,,---,0.00,VWS V14.01,2013-05-06 06:44:00,
2013-05-05 23:50:00,67.9,32.7,29.81,SW,226,6.0,14.0,27,0.00,,---,0.00,VWS V14.01,2013-05-06 06:50:00,
2013-05-05 23:55:00,67.4,37.3,29.82,ESE,120,8.0,14.0,33,0.00,,---,0.00,VWS V14.01,2013-05-06 06:55:00,